Location: Coed Ely
(51.5661°N, 3.4150°W)
Time: 19:21:14
(UTC+00:00)

CZ-2C R/B - Pass Details

Date: 28 January 2021
Orbit: 704 x 908 km, 98.1° (Epoch: 27 February)

Event Time Altitude Azimuth Distance (km) Brightness Sun altitude
Rises 18:09:15 0° 158° (SSE) 3,375 6.3 -11.4°
Reaches altitude 10° 18:11:33 10° 157° (SSE) 2,472 5.5 -11.7°
Maximum altitude 18:17:04 77° 73° (ENE) 907 3.2 -12.5°
Drops below altitude 10° 18:22:52 10° 348° (NNW) 2,587 5.7 -13.4°
Sets 18:25:20 0° 347° (NNW) 3,543 6.5 -13.8°
